User: anonymous   Login
Location: Columbia
(38.9520°N, 92.3340°W)
Time: 19:05:16
(UTC-05:00)
Language:

Cosmos 2219 Rocket - Orbit

View from above orbital plane
View from above orbital plane
View from above satellite
View from above satellite

Ground track
Ground track

The orbit data is extracted from the following two-line orbital elements,

1 22220U 92076B   16149.52074611 -.00000256  00000-0 -10445-3 0  9991
2 22220  70.9979 148.9377 0011508 148.0432 354.9795 14.16396847216300
Epoch (UTC): 28 May 2016 12:29:52
Eccentricity: 0.0011508
inclination: 70.9979°
perigee height: 829 km
apogee height: 846 km
right ascension of ascending node: 148.9377°
argument of perigee: 148.0432°
revolutions per day: 14.16396847
mean anomaly at epoch: 354.9795°
orbit number at epoch: 21630

The dashed part of the orbit path shows where the satellite is in the earth's shadow,  

DLR